Regional Weather Roundup
Issued by NWS Albany, NY

Home | Current Version | Previous Version | Text Only | Print | Product List | Glossary On
Versions: 1 2 3 4 5 6 7 8 9 10 11 12 13 14 15 16 17 18 19 20 21 22 23 24 25 26 27 28 29 30 31 32 33 34 35 36 37 38 39 40 41 42 43 44 45 46 47 48 49 50
000
ASUS41 KALY 010910
RWRALY

NEW YORK STATE HOURLY WEATHER ROUNDUP
NATIONAL WEATHER SERVICE ALBANY NY
500 AM EDT MON SEP 01 2014

NOTE: "FAIR" INDICATES FEW OR NO CLOUDS BELOW 12,000 FEET WITH NO
SIGNIFICANT WEATHER AND/OR NO OBSTRUCTIONS TO VISIBILITY.

NYZ032-033-038>043-046>054-057>066-NYZ062>081-011000-
EAST


CITY           SKY/WX    TMP DP  RH WIND       PRES   REMARKS
ALBANY         CLOUDY    71  69  93 CALM      29.98S FOG
GLENS FALLS    FOG       68  67  96 S3        29.98R VSB 3/4
POUGHKEEPSIE   PTCLDY    71  69  93 CALM      29.98R
MONTGOMERY     MOCLDY    66  65  96 CALM      30.00R FOG
WHITE PLAINS   CLOUDY    73  71  93 CALM      29.99R
ISLIP          CLOUDY    74  71  91 SW8       29.98R
NEW YORK CITY  CLOUDY    76  70  82 CALM      29.98R
CENTRAL PARK   CLOUDY    75  71  87 W3        30.02R
$$

NYZ005>009-017-018-044>046-055-056-011000-
CENTRAL


CITY           SKY/WX    TMP DP  RH WIND       PRES   REMARKS
FULTON         CLOUDY    69  66  90 SW3       29.98R
SYRACUSE       CLOUDY    70  66  87 CALM      29.98R
ROME           CLOUDY    67  66  97 E3        30.01R
ELMIRA         FOG       67  67 100 CALM      30.01S VSB 1/4
BINGHAMTON     PTCLDY    67  66  97 SW6       30.04R FOG
MONTICELLO     CLOUDY    64  63  94 CALM      30.05S
$$

NYZ026>034-041>043-011000-
NORTH


CITY           SKY/WX    TMP DP  RH WIND       PRES   REMARKS
WATERTOWN      CLOUDY    70  65  84 S5        29.96R HAZE
FORT DRUM      NOT AVBL
MASSENA        PTCLDY    66  66 100 SW6       29.94R FOG
SARANAC LAKE   MOCLDY    66  65  96 SW5       29.99R FOG
PLATTSBURGH    FOG       64  64 100 SW3       29.93R VSB 3/4
$$

NYZ001>004-010>016-019>021-011000-
WEST


CITY           SKY/WX    TMP DP  RH WIND       PRES   REMARKS
NIAGARA FALLS  CLOUDY    70  68  93 SW7       29.97R
BUFFALO        CLOUDY    68  66  93 S3        29.99R
DUNKIRK        MOCLDY    70  67  90 S7G17     29.99R
JAMESTOWN      CLOUDY    66  66 100 CALM      30.04S
WELLSVILLE     MOCLDY    67  65  93 CALM      30.07R
ROCHESTER      PTCLDY    67  65  93 SW7       29.99R
PENN YAN       CLEAR     67  65  93 SW5       30.01R
$$

             KEY
       WCI = WIND CHILL INDEX
       VSB = VISIBILITY
       HX  = HEAT INDEX
$$



USA.gov is the U.S. government's official web portal to all federal, state and local government web resources and services.